Flag for Hungary Weather past 2 weeks in Szeged, Hungary

Now
59 °F

Overcast.


Feels Like: 60 °F
Forecast: 54 / 67 °F
Wind: 3 mph from North

Location: Szeged

Current Time: Oct 2, 2014 at 9:19:14 AM

Latest Report: Oct 2, 2014 at 8:00 AM


Visibility: 4 mi

Pressure: 30.26 "Hg

Humidity: 90%

Dew point: 56 °F

Location of SzegedLocation

Historic Weather in Szeged — Graph

°F

Szeged temperature yesterday

Maximum temperature yesterday: 72 °F (at 2:00 PM)
Minimum temperature yesterday: 45 °F (at 7:00 AM)
Average temperature yesterday: 60 °F

Past Weeks' High & Low Weather Summary

 TemperatureHumidityPressure
High80 °F (Sep 21, 3:00 PM)97% (Sep 18, 3:00 AM)30.43 "Hg (Sep 18, 3:00 AM)
Low38 °F (Sep 24, 7:00 AM)36% (Sep 18, 3:00 PM)29.77 "Hg (Sep 22, 5:00 AM)
Average59 °F76%30.12 "Hg
* Reported Sep 17 8:00 AM — Oct 2 8:00 AM, Szeged, Weather by CustomWeather, © 2014

Note: Actual official high and low records may vary slightly from our data, if they occured in-between our weather recording intervals... More about our weather records

Advertising

Szeged weather history for previous 24 hours

 ConditionsComfort  
Time TempWeatherWind HumidityBarometerVisibility
8:00 AM
Oct 2
59 °FOvercast.3 mph90%30.26 "Hg4 mi
7:00 AM59 °FOvercast.3 mph90%30.24 "Hg4 mi
6:00 AM59 °FOvercast.3 mph91%30.23 "Hg7 mi
5:00 AM60 °FOvercast.3 mph91%30.22 "Hg9 mi
4:00 AM60 °FOvercast.2 mph89%30.23 "Hg9 mi
3:00 AM60 °FOvercast.3 mph87%30.23 "Hg9 mi
2:00 AM60 °FOvercast.3 mph86%30.24 "Hg9 mi
1:00 AM59 °FCool.2 mph88%30.23 "HgN/A
12:00 AM61 °FOvercast.2 mph82%30.22 "Hg9 mi
11:00 PM
Oct 1
61 °FOvercast.2 mph78%30.23 "Hg9 mi
10:00 PM61 °FOvercast.3 mph77%30.22 "Hg9 mi
9:00 PM62 °FOvercast.3 mph76%30.23 "Hg9 mi
8:00 PM63 °FOvercast.2 mph71%30.22 "Hg9 mi
7:00 PM65 °FOvercast.2 mph66%30.22 "Hg9 mi
6:00 PM70 °FOvercast.1 mph55%30.21 "Hg14 mi
5:00 PM72 °FOvercast.2 mph46%30.21 "Hg16 mi
4:00 PM72 °FOvercast.1 mph45%30.21 "Hg16 mi
3:00 PM72 °FOvercast.1 mph46%30.22 "Hg16 mi
2:00 PM72 °FOvercast.1 mph44%30.23 "Hg17 mi
1:00 PM72 °FOvercast.1 mph47%30.24 "Hg16 mi
12:00 PM72 °FOvercast.1 mph45%30.25 "Hg11 mi
11:00 AM69 °FOvercast.1 mph57%30.26 "Hg6 mi
10:00 AM64 °FOvercast.1 mph73%30.26 "Hg6 mi
9:00 AM61 °FOvercast.No wind78%30.25 "Hg7 mi
Weather by CustomWeather, © 2014

See weather overviewHow to use our weather pages